JST449 YBCG-YMML

Flight info

Callsign JST449
Flight time 1h 57m
Altitude 34000
Route GOMOL Q16 ISKIM Q35 DORSU H119 ML
Aircraft A321/M-SDE3FGHIRWY/LB1

Departure

Time 2026-05-06 11:04
Airport Gold Coast Airport (YBCG)

Arrival

Time 2026-05-06 13:02
Airport Melbourne Airport (YMML)
Time Latitude Longitude Altitude Speed Heading
2026-05-06 10:27 -28.16721 153.51204 30 ft 0 kts 60°
2026-05-06 10:53 -28.16729 153.51188 27 ft 4 kts 62°
2026-05-06 10:53 -28.16742 153.51161 29 ft 4 kts 57°
2026-05-06 10:53 -28.16756 153.51140 27 ft 3 kts 43°
2026-05-06 10:54 -28.16768 153.51120 26 ft 4 kts 102°
2026-05-06 10:54 -28.16755 153.51096 26 ft 4 kts 142°
2026-05-06 10:54 -28.16744 153.51087 28 ft 0 kts 150°
2026-05-06 10:57 -28.16766 153.51101 28 ft 9 kts 150°
2026-05-06 10:57 -28.16832 153.51143 28 ft 12 kts 150°
2026-05-06 10:57 -28.16920 153.51200 27 ft 17 kts 150°
2026-05-06 10:58 -28.17009 153.51257 29 ft 13 kts 151°
2026-05-06 10:58 -28.17075 153.51260 27 ft 6 kts 208°
2026-05-06 10:58 -28.17092 153.51217 28 ft 8 kts 281°
2026-05-06 10:58 -28.17040 153.51170 27 ft 13 kts 329°
2026-05-06 10:59 -28.16930 153.51099 30 ft 23 kts 330°
2026-05-06 10:59 -28.16780 153.51002 31 ft 25 kts 331°
2026-05-06 10:59 -28.16626 153.50906 28 ft 25 kts 331°
2026-05-06 10:59 -28.16477 153.50811 28 ft 25 kts 330°
2026-05-06 11:00 -28.16325 153.50713 28 ft 25 kts 330°
2026-05-06 11:00 -28.16173 153.50616 27 ft 25 kts 333°
2026-05-06 11:00 -28.16009 153.50513 29 ft 28 kts 332°
2026-05-06 11:00 -28.15839 153.50406 27 ft 26 kts 330°
2026-05-06 11:01 -28.15720 153.50331 29 ft 18 kts 330°
2026-05-06 11:01 -28.15638 153.50275 27 ft 10 kts 321°
2026-05-06 11:01 -28.15606 153.50214 29 ft 6 kts 280°
2026-05-06 11:01 -28.15606 153.50208 28 ft 0 kts 276°
2026-05-06 11:03 -28.15606 153.50207 28 ft 1 kts 274°
2026-05-06 11:03 -28.15614 153.50172 26 ft 12 kts 246°
2026-05-06 11:03 -28.15654 153.50096 29 ft 7 kts 230°
2026-05-06 11:03 -28.15700 153.50102 27 ft 8 kts 152°
2026-05-06 11:04 -28.15897 153.50227 27 ft 68 kts 150°
2026-05-06 11:04 -28.16511 153.50617 27 ft 132 kts 150°
2026-05-06 11:04 -28.17456 153.51209 192 ft 167 kts 153°
2026-05-06 11:04 -28.18443 153.51801 1006 ft 158 kts 152°
2026-05-06 11:05 -28.19397 153.52412 1778 ft 157 kts 149°
2026-05-06 11:05 -28.20418 153.52962 2182 ft 170 kts 156°
2026-05-06 11:05 -28.21589 153.53478 2323 ft 191 kts 159°
2026-05-06 11:05 -28.22895 153.54028 2442 ft 211 kts 158°
2026-05-06 11:06 -28.24363 153.54622 2598 ft 236 kts 164°
2026-05-06 11:06 -28.26050 153.54573 2916 ft 255 kts 201°
2026-05-06 11:06 -28.27455 153.53361 3498 ft 265 kts 230°
2026-05-06 11:06 -28.28487 153.51614 4174 ft 268 kts 240°
2026-05-06 11:07 -28.29380 153.49743 4872 ft 271 kts 242°
2026-05-06 11:07 -28.30282 153.47857 5581 ft 272 kts 241°
2026-05-06 11:07 -28.31235 153.46005 6331 ft 272 kts 239°
2026-05-06 11:07 -28.32243 153.44182 6998 ft 273 kts 238°
2026-05-06 11:08 -28.33298 153.42378 7653 ft 275 kts 237°
2026-05-06 11:08 -28.34384 153.40585 8315 ft 277 kts 236°
2026-05-06 11:08 -28.35478 153.38811 8948 ft 279 kts 236°
2026-05-06 11:08 -28.36602 153.37002 9586 ft 282 kts 236°
2026-05-06 11:09 -28.37741 153.35172 10187 ft 286 kts 236°
2026-05-06 11:09 -28.38927 153.33265 10376 ft 306 kts 236°
2026-05-06 11:09 -28.40193 153.31225 10503 ft 326 kts 236°
2026-05-06 11:09 -28.41532 153.29065 10656 ft 343 kts 236°
2026-05-06 11:10 -28.42917 153.26825 11087 ft 349 kts 237°
2026-05-06 11:10 -28.44321 153.24559 11643 ft 353 kts 237°
2026-05-06 11:10 -28.45738 153.22272 12236 ft 355 kts 237°
2026-05-06 11:10 -28.47148 153.19999 12799 ft 358 kts 238°
2026-05-06 11:11 -28.48588 153.17673 13353 ft 362 kts 238°
2026-05-06 11:11 -28.50042 153.15324 13901 ft 365 kts 238°
2026-05-06 11:11 -28.51510 153.12951 14387 ft 368 kts 238°
2026-05-06 11:11 -28.52988 153.10558 14898 ft 371 kts 238°
2026-05-06 11:12 -28.54475 153.08149 15426 ft 374 kts 238°
2026-05-06 11:12 -28.55971 153.05721 15958 ft 376 kts 238°
2026-05-06 11:12 -28.57475 153.03278 16503 ft 378 kts 238°
2026-05-06 11:12 -28.58989 153.00819 17028 ft 381 kts 238°
2026-05-06 11:13 -28.60493 152.98377 17538 ft 383 kts 238°
2026-05-06 11:13 -28.62023 152.95886 18055 ft 385 kts 239°
2026-05-06 11:13 -28.63563 152.93380 18546 ft 388 kts 239°
2026-05-06 11:13 -28.65113 152.90860 19026 ft 389 kts 239°
2026-05-06 11:14 -28.66666 152.88337 19509 ft 390 kts 239°
2026-05-06 11:14 -28.68225 152.85800 19968 ft 392 kts 239°
2026-05-06 11:14 -28.69789 152.83252 20412 ft 394 kts 239°
2026-05-06 11:14 -28.71357 152.80691 20864 ft 395 kts 239°
2026-05-06 11:15 -28.72931 152.78114 21280 ft 397 kts 239°
2026-05-06 11:15 -28.74489 152.75560 21679 ft 399 kts 240°
2026-05-06 11:15 -28.76076 152.72959 22102 ft 400 kts 240°
2026-05-06 11:15 -28.77671 152.70347 22508 ft 402 kts 240°
2026-05-06 11:16 -28.79276 152.67726 22901 ft 405 kts 240°
2026-05-06 11:16 -28.80890 152.65090 23291 ft 406 kts 240°
2026-05-06 11:16 -28.82508 152.62441 23686 ft 408 kts 240°
2026-05-06 11:16 -28.84133 152.59776 24018 ft 410 kts 240°
2026-05-06 11:17 -28.85868 152.57182 24328 ft 414 kts 235°
2026-05-06 11:17 -28.87719 152.54656 24655 ft 415 kts 235°
2026-05-06 11:17 -28.89575 152.52124 24992 ft 416 kts 236°
2026-05-06 11:17 -28.91405 152.49619 25334 ft 417 kts 236°
2026-05-06 11:18 -28.93261 152.47073 25636 ft 418 kts 236°
2026-05-06 11:18 -28.95124 152.44513 25957 ft 419 kts 236°
2026-05-06 11:18 -28.96990 152.41951 26268 ft 420 kts 236°
2026-05-06 11:18 -28.98864 152.39378 26564 ft 422 kts 236°
2026-05-06 11:19 -29.00108 152.37669 26772 ft 423 kts 236°
2026-05-06 11:19 -29.01994 152.35080 27068 ft 425 kts 236°
2026-05-06 11:19 -29.03885 152.32480 27365 ft 426 kts 236°
2026-05-06 11:19 -29.05780 152.29875 27649 ft 427 kts 236°
2026-05-06 11:20 -29.07678 152.27258 27925 ft 428 kts 236°
2026-05-06 11:20 -29.10223 152.23739 28301 ft 430 kts 236°
2026-05-06 11:20 -29.12137 152.21098 28548 ft 432 kts 237°
2026-05-06 11:20 -29.14032 152.18484 28820 ft 433 kts 237°
2026-05-06 11:21 -29.15957 152.15828 29070 ft 435 kts 237°
2026-05-06 11:21 -29.17886 152.13162 29345 ft 436 kts 237°
2026-05-06 11:21 -29.19823 152.10488 29667 ft 436 kts 237°
2026-05-06 11:21 -29.21754 152.07825 30083 ft 434 kts 237°
2026-05-06 11:22 -29.23678 152.05170 30472 ft 432 kts 237°
2026-05-06 11:22 -29.25590 152.02525 30817 ft 430 kts 237°
2026-05-06 11:22 -29.27492 151.99888 31164 ft 428 kts 237°
2026-05-06 11:22 -29.28745 151.98150 31380 ft 427 kts 238°
2026-05-06 11:23 -29.31239 151.94683 31843 ft 424 kts 238°
2026-05-06 11:23 -29.33113 151.92078 32142 ft 423 kts 238°
2026-05-06 11:23 -29.34977 151.89479 32465 ft 421 kts 238°
2026-05-06 11:23 -29.36831 151.86894 32803 ft 419 kts 238°
2026-05-06 11:24 -29.38678 151.84322 33123 ft 417 kts 238°
2026-05-06 11:24 -29.40519 151.81761 33452 ft 415 kts 239°
2026-05-06 11:24 -29.42352 151.79214 33795 ft 413 kts 239°
2026-05-06 11:24 -29.43562 151.77530 33970 ft 413 kts 238°
2026-05-06 11:25 -29.46004 151.74119 34140 ft 414 kts 238°
2026-05-06 11:25 -29.49624 151.69059 34155 ft 412 kts 238°
2026-05-06 11:26 -29.54057 151.64686 34151 ft 435 kts 219°
2026-05-06 11:26 -29.59350 151.61268 34153 ft 436 kts 219°
2026-05-06 11:27 -29.63743 151.58422 34182 ft 436 kts 218°
2026-05-06 11:27 -29.69887 151.54438 34145 ft 436 kts 218°
2026-05-06 11:28 -29.75166 151.50996 34144 ft 437 kts 218°
2026-05-06 11:28 -29.79565 151.48135 34151 ft 437 kts 218°
2026-05-06 11:29 -29.84855 151.44685 34160 ft 437 kts 218°
2026-05-06 11:29 -29.90143 151.41219 34160 ft 437 kts 218°
2026-05-06 11:30 -29.95439 151.37759 34160 ft 438 kts 218°
2026-05-06 11:30 -30.01600 151.33725 34160 ft 438 kts 218°
2026-05-06 11:31 -30.06004 151.30842 34146 ft 438 kts 218°
2026-05-06 11:31 -30.11313 151.27369 34145 ft 438 kts 218°
2026-05-06 11:32 -30.16613 151.23887 34147 ft 438 kts 218°
2026-05-06 11:32 -30.21910 151.20394 34147 ft 438 kts 218°
2026-05-06 11:33 -30.27215 151.16906 34148 ft 439 kts 218°
2026-05-06 11:33 -30.32480 151.13431 34155 ft 439 kts 218°
2026-05-06 11:34 -30.37787 151.09920 34149 ft 440 kts 218°
2026-05-06 11:34 -30.43106 151.06406 34146 ft 440 kts 218°
2026-05-06 11:35 -30.48426 151.02885 34146 ft 441 kts 218°
2026-05-06 11:35 -30.53718 150.99385 34159 ft 441 kts 217°
2026-05-06 11:36 -30.59048 150.95847 34152 ft 442 kts 217°
2026-05-06 11:36 -30.64382 150.92294 34146 ft 442 kts 218°
2026-05-06 11:37 -30.69721 150.88735 34141 ft 443 kts 218°
2026-05-06 11:37 -30.75029 150.85204 34161 ft 443 kts 217°
2026-05-06 11:38 -30.80377 150.81649 34155 ft 443 kts 217°
2026-05-06 11:38 -30.85722 150.78084 34157 ft 443 kts 217°
2026-05-06 11:39 -30.91061 150.74509 34148 ft 443 kts 217°
2026-05-06 11:39 -30.96396 150.70923 34171 ft 442 kts 217°
2026-05-06 11:40 -31.01729 150.67343 34158 ft 442 kts 217°
2026-05-06 11:40 -31.06925 150.63649 34150 ft 435 kts 225°
2026-05-06 11:41 -31.11434 150.59033 34146 ft 431 kts 229°
2026-05-06 11:41 -31.15908 150.54369 34160 ft 431 kts 229°
2026-05-06 11:42 -31.20391 150.49715 34155 ft 431 kts 229°
2026-05-06 11:42 -31.24839 150.45087 34149 ft 431 kts 229°
2026-05-06 11:43 -31.29306 150.40418 34151 ft 431 kts 229°
2026-05-06 11:43 -31.33770 150.35744 34171 ft 431 kts 229°
2026-05-06 11:44 -31.40470 150.28730 34163 ft 431 kts 229°
2026-05-06 11:44 -31.44933 150.24055 34157 ft 430 kts 229°
2026-05-06 11:45 -31.49390 150.19370 34151 ft 430 kts 229°
2026-05-06 11:45 -31.53813 150.14714 34183 ft 430 kts 230°
2026-05-06 11:46 -31.58265 150.10028 34171 ft 430 kts 230°
2026-05-06 11:46 -31.62714 150.05346 34173 ft 430 kts 230°
2026-05-06 11:47 -31.67153 150.00653 34170 ft 429 kts 230°
2026-05-06 11:47 -31.71552 149.95994 34187 ft 429 kts 230°
2026-05-06 11:48 -31.75979 149.91304 34186 ft 428 kts 230°
2026-05-06 11:48 -31.80400 149.86612 34184 ft 428 kts 230°
2026-05-06 11:49 -31.84809 149.81911 34186 ft 427 kts 231°
2026-05-06 11:49 -31.88998 149.77013 34205 ft 423 kts 234°
2026-05-06 11:50 -31.93016 149.72027 34197 ft 423 kts 234°
2026-05-06 11:50 -31.97074 149.67021 34191 ft 423 kts 234°
2026-05-06 11:51 -32.01171 149.62054 34189 ft 423 kts 234°
2026-05-06 11:51 -32.05277 149.57097 34184 ft 422 kts 234°
2026-05-06 11:52 -32.09367 149.52143 34184 ft 421 kts 234°
2026-05-06 11:52 -32.13446 149.47177 34185 ft 421 kts 234°
2026-05-06 11:53 -32.17495 149.42242 34188 ft 421 kts 234°
2026-05-06 11:53 -32.21567 149.37275 34190 ft 421 kts 234°
2026-05-06 11:54 -32.25634 149.32300 34194 ft 420 kts 234°
2026-05-06 11:54 -32.29680 149.27348 34184 ft 418 kts 234°
2026-05-06 11:55 -32.33698 149.22433 34182 ft 418 kts 234°
2026-05-06 11:55 -32.37739 149.17480 34185 ft 418 kts 234°
2026-05-06 11:56 -32.41776 149.12521 34184 ft 418 kts 234°
2026-05-06 11:56 -32.45804 149.07554 34197 ft 418 kts 234°
2026-05-06 11:57 -32.49834 149.02592 34208 ft 418 kts 234°
2026-05-06 11:57 -32.53840 148.97666 34201 ft 418 kts 234°
2026-05-06 11:58 -32.57868 148.92700 34194 ft 418 kts 234°
2026-05-06 11:58 -32.61889 148.87724 34215 ft 418 kts 234°
2026-05-06 11:59 -32.65906 148.82739 34207 ft 418 kts 234°
2026-05-06 11:59 -32.69926 148.77747 34204 ft 418 kts 234°
2026-05-06 12:00 -32.73950 148.72754 34209 ft 418 kts 234°
2026-05-06 12:00 -32.77942 148.67785 34245 ft 418 kts 234°
2026-05-06 12:01 -32.81964 148.62777 34237 ft 419 kts 234°
2026-05-06 12:01 -32.85986 148.57766 34224 ft 419 kts 234°
2026-05-06 12:02 -32.90006 148.52745 34230 ft 419 kts 234°
2026-05-06 12:02 -32.93996 148.47754 34235 ft 419 kts 234°
2026-05-06 12:03 -32.98015 148.42722 34226 ft 419 kts 234°
2026-05-06 12:03 -33.02031 148.37688 34226 ft 419 kts 234°
2026-05-06 12:04 -33.06045 148.32646 34227 ft 419 kts 234°
2026-05-06 12:04 -33.10061 148.27598 34227 ft 420 kts 234°
2026-05-06 12:05 -33.14205 148.22728 34240 ft 427 kts 225°
2026-05-06 12:05 -33.18920 148.18389 34234 ft 428 kts 225°
2026-05-06 12:06 -33.23635 148.14052 34231 ft 428 kts 225°
2026-05-06 12:06 -33.28340 148.09708 34229 ft 427 kts 225°
2026-05-06 12:07 -33.33039 148.05359 34227 ft 427 kts 225°
2026-05-06 12:07 -33.37700 148.01038 34222 ft 427 kts 225°
2026-05-06 12:08 -33.42390 147.96681 34220 ft 427 kts 225°
2026-05-06 12:08 -33.47085 147.92318 34238 ft 427 kts 225°
2026-05-06 12:09 -33.51775 147.87949 34228 ft 427 kts 225°
2026-05-06 12:09 -33.56435 147.83608 34222 ft 427 kts 225°
2026-05-06 12:10 -33.61127 147.79236 34222 ft 427 kts 225°
2026-05-06 12:10 -33.65813 147.74859 34240 ft 427 kts 226°
2026-05-06 12:11 -33.70501 147.70475 34229 ft 427 kts 226°
2026-05-06 12:11 -33.75156 147.66115 34218 ft 427 kts 226°
2026-05-06 12:12 -33.79842 147.61709 34213 ft 428 kts 226°
2026-05-06 12:12 -33.84528 147.57307 34215 ft 427 kts 226°
2026-05-06 12:13 -33.89213 147.52901 34211 ft 427 kts 226°
2026-05-06 12:13 -33.93863 147.48518 34215 ft 427 kts 226°
2026-05-06 12:14 -33.98539 147.44104 34227 ft 427 kts 226°
2026-05-06 12:14 -34.03213 147.39683 34227 ft 427 kts 226°
2026-05-06 12:15 -34.07883 147.35260 34219 ft 427 kts 226°
2026-05-06 12:15 -34.12519 147.30871 34216 ft 426 kts 226°
2026-05-06 12:16 -34.17182 147.26451 34238 ft 426 kts 226°
2026-05-06 12:16 -34.21827 147.22038 34195 ft 424 kts 226°
2026-05-06 12:17 -34.26467 147.17622 34192 ft 424 kts 226°
2026-05-06 12:17 -34.31099 147.13196 34185 ft 424 kts 226°
2026-05-06 12:18 -34.35698 147.08799 34208 ft 424 kts 226°
2026-05-06 12:18 -34.40330 147.04369 34201 ft 424 kts 226°
2026-05-06 12:19 -34.44964 146.99937 34204 ft 424 kts 226°
2026-05-06 12:19 -34.49597 146.95498 34193 ft 424 kts 227°
2026-05-06 12:20 -34.54192 146.91086 34197 ft 424 kts 227°
2026-05-06 12:20 -34.58822 146.86637 34192 ft 425 kts 227°
2026-05-06 12:21 -34.63452 146.82179 34187 ft 425 kts 227°
2026-05-06 12:21 -34.68076 146.77709 34212 ft 425 kts 227°
2026-05-06 12:22 -34.72671 146.73271 34204 ft 425 kts 227°
2026-05-06 12:22 -34.77303 146.68797 34194 ft 425 kts 227°
2026-05-06 12:23 -34.81929 146.64315 34174 ft 425 kts 227°
2026-05-06 12:23 -34.86555 146.59828 34193 ft 426 kts 227°
2026-05-06 12:24 -34.91158 146.55363 34182 ft 426 kts 227°
2026-05-06 12:24 -34.95790 146.50856 34175 ft 426 kts 227°
2026-05-06 12:25 -35.00429 146.46345 34206 ft 427 kts 228°
2026-05-06 12:25 -35.05070 146.41824 34186 ft 427 kts 228°
2026-05-06 12:26 -35.09706 146.37289 34172 ft 427 kts 228°
2026-05-06 12:26 -35.14311 146.32775 34164 ft 428 kts 228°
2026-05-06 12:27 -35.18946 146.28221 34168 ft 427 kts 228°
2026-05-06 12:27 -35.23566 146.23677 34163 ft 426 kts 228°
2026-05-06 12:28 -35.28162 146.19166 34154 ft 427 kts 228°
2026-05-06 12:28 -35.32788 146.14620 34189 ft 427 kts 229°
2026-05-06 12:29 -35.37398 146.10075 34166 ft 425 kts 229°
2026-05-06 12:29 -35.41992 146.05526 34158 ft 425 kts 229°
2026-05-06 12:30 -35.46555 146.01002 34139 ft 424 kts 229°
2026-05-06 12:30 -35.51148 145.96449 34144 ft 424 kts 228°
2026-05-06 12:31 -35.55740 145.91901 34141 ft 424 kts 229°
2026-05-06 12:31 -35.60328 145.87347 34146 ft 424 kts 229°
2026-05-06 12:32 -35.64877 145.82817 34180 ft 423 kts 229°
2026-05-06 12:32 -35.69433 145.78272 34120 ft 421 kts 229°
2026-05-06 12:33 -35.73973 145.73729 34123 ft 421 kts 229°
2026-05-06 12:33 -35.78515 145.69182 34125 ft 421 kts 229°
2026-05-06 12:34 -35.83025 145.64671 34160 ft 421 kts 229°
2026-05-06 12:34 -35.87565 145.60123 34149 ft 420 kts 229°
2026-05-06 12:35 -35.92098 145.55573 34149 ft 420 kts 229°
2026-05-06 12:35 -35.96623 145.51018 34168 ft 419 kts 229°
2026-05-06 12:36 -36.01087 145.46515 34140 ft 416 kts 230°
2026-05-06 12:36 -36.05564 145.41999 34128 ft 416 kts 230°
2026-05-06 12:37 -36.10048 145.37471 34136 ft 416 kts 230°
2026-05-06 12:37 -36.14523 145.32935 34166 ft 416 kts 230°
2026-05-06 12:38 -36.18965 145.28431 34154 ft 415 kts 230°
2026-05-06 12:38 -36.23431 145.23908 34148 ft 414 kts 230°
2026-05-06 12:39 -36.27884 145.19393 34106 ft 414 kts 230°
2026-05-06 12:39 -36.30114 145.17116 32967 ft 416 kts 230°
2026-05-06 12:39 -36.32322 145.14864 32244 ft 402 kts 230°
2026-05-06 12:40 -36.34442 145.12731 31558 ft 388 kts 231°
2026-05-06 12:40 -36.36498 145.10648 30475 ft 386 kts 231°
2026-05-06 12:40 -36.38568 145.08529 29467 ft 387 kts 231°
2026-05-06 12:40 -36.40612 145.06431 29283 ft 375 kts 231°
2026-05-06 12:41 -36.42593 145.04411 29244 ft 363 kts 231°
2026-05-06 12:41 -36.44517 145.02451 29152 ft 356 kts 232°
2026-05-06 12:41 -36.46432 145.00482 29033 ft 358 kts 232°
2026-05-06 12:41 -36.48347 144.98507 28947 ft 357 kts 231°
2026-05-06 12:42 -36.50257 144.96539 28718 ft 356 kts 231°
2026-05-06 12:42 -36.52155 144.94587 28313 ft 353 kts 231°
2026-05-06 12:42 -36.54018 144.92674 27913 ft 350 kts 231°
2026-05-06 12:42 -36.55887 144.90756 27518 ft 347 kts 231°
2026-05-06 12:43 -36.57744 144.88849 27164 ft 345 kts 231°
2026-05-06 12:43 -36.59589 144.86948 26741 ft 343 kts 231°
2026-05-06 12:43 -36.61425 144.85059 26363 ft 340 kts 231°
2026-05-06 12:43 -36.63242 144.83190 25995 ft 337 kts 231°
2026-05-06 12:44 -36.65040 144.81340 25625 ft 334 kts 231°
2026-05-06 12:44 -36.66796 144.79530 25246 ft 331 kts 231°
2026-05-06 12:44 -36.68562 144.77706 24842 ft 329 kts 231°
2026-05-06 12:44 -36.70316 144.75892 24455 ft 326 kts 231°
2026-05-06 12:45 -36.72057 144.74092 24122 ft 324 kts 231°
2026-05-06 12:45 -36.73783 144.72306 23691 ft 322 kts 231°
2026-05-06 12:45 -36.77199 144.68773 22868 ft 315 kts 231°
2026-05-06 12:46 -36.79021 144.67211 22485 ft 324 kts 220°
2026-05-06 12:46 -36.81179 144.66193 22074 ft 341 kts 206°
2026-05-06 12:46 -36.83565 144.65888 21638 ft 360 kts 190°
2026-05-06 12:46 -36.86096 144.66326 21172 ft 371 kts 182°
2026-05-06 12:47 -36.88635 144.66904 20699 ft 370 kts 182°
2026-05-06 12:47 -36.91173 144.67474 20219 ft 372 kts 182°
2026-05-06 12:47 -36.93720 144.68041 19729 ft 372 kts 182°
2026-05-06 12:47 -36.96272 144.68608 19225 ft 373 kts 181°
2026-05-06 12:48 -36.98828 144.69175 18743 ft 373 kts 181°
2026-05-06 12:48 -37.01389 144.69741 18205 ft 374 kts 181°
2026-05-06 12:48 -37.03949 144.70308 17702 ft 373 kts 181°
2026-05-06 12:48 -37.06462 144.70864 17224 ft 371 kts 181°
2026-05-06 12:49 -37.08997 144.71426 16722 ft 370 kts 181°
2026-05-06 12:49 -37.11526 144.71988 16224 ft 368 kts 181°
2026-05-06 12:49 -37.14039 144.72545 15735 ft 366 kts 181°
2026-05-06 12:49 -37.16544 144.73101 15270 ft 363 kts 181°
2026-05-06 12:50 -37.19022 144.73686 14843 ft 362 kts 180°
2026-05-06 12:50 -37.21481 144.74325 14407 ft 361 kts 179°
2026-05-06 12:50 -37.23930 144.74994 13966 ft 359 kts 179°
2026-05-06 12:50 -37.26326 144.75659 13496 ft 356 kts 178°
2026-05-06 12:51 -37.28731 144.76323 13067 ft 352 kts 178°
2026-05-06 12:51 -37.31116 144.76972 12637 ft 349 kts 178°
2026-05-06 12:51 -37.33476 144.77602 12236 ft 345 kts 178°
2026-05-06 12:51 -37.35822 144.78119 11803 ft 339 kts 180°
2026-05-06 12:52 -37.38140 144.78537 11395 ft 334 kts 181°
2026-05-06 12:52 -37.40432 144.78907 10990 ft 331 kts 181°
2026-05-06 12:52 -37.42705 144.79263 10591 ft 328 kts 180°
2026-05-06 12:52 -37.44948 144.79625 10370 ft 319 kts 180°
2026-05-06 12:53 -37.47082 144.79996 10239 ft 309 kts 179°
2026-05-06 12:53 -37.49174 144.80421 10029 ft 302 kts 178°
2026-05-06 12:53 -37.51244 144.80875 9644 ft 301 kts 177°
2026-05-06 12:53 -37.53270 144.81492 9319 ft 304 kts 163°
2026-05-06 12:54 -37.55026 144.82992 8903 ft 308 kts 137°
2026-05-06 12:54 -37.56164 144.85267 8193 ft 310 kts 111°
2026-05-06 12:54 -37.56491 144.87899 7771 ft 298 kts 94°
2026-05-06 12:54 -37.56608 144.90469 7252 ft 290 kts 95°
2026-05-06 12:55 -37.56739 144.92940 6710 ft 285 kts 96°
2026-05-06 12:55 -37.56879 144.95422 6167 ft 279 kts 97°
2026-05-06 12:55 -37.57015 144.97832 6004 ft 276 kts 98°
2026-05-06 12:55 -37.57361 145.00175 5379 ft 266 kts 122°
2026-05-06 12:56 -37.58400 145.01980 4764 ft 247 kts 149°
2026-05-06 12:56 -37.59839 145.02984 4131 ft 230 kts 172°
2026-05-06 12:56 -37.61341 145.03163 3771 ft 207 kts 191°
2026-05-06 12:56 -37.62721 145.03038 3636 ft 187 kts 191°
2026-05-06 12:57 -37.63956 145.02943 3510 ft 170 kts 192°
2026-05-06 12:57 -37.65087 145.02853 3414 ft 157 kts 193°
2026-05-06 12:57 -37.66067 145.02505 3350 ft 142 kts 216°
2026-05-06 12:57 -37.66757 145.01656 3270 ft 138 kts 239°
2026-05-06 12:58 -37.67053 145.00522 3008 ft 138 kts 262°
2026-05-06 12:58 -37.67008 144.99319 2798 ft 133 kts 269°
2026-05-06 12:58 -37.66951 144.98184 2585 ft 127 kts 269°
2026-05-06 12:58 -37.66896 144.97084 2409 ft 125 kts 269°
2026-05-06 12:59 -37.66843 144.95994 2234 ft 124 kts 268°
2026-05-06 12:59 -37.66792 144.94908 2062 ft 124 kts 268°
2026-05-06 12:59 -37.66737 144.93821 1893 ft 124 kts 268°
2026-05-06 12:59 -37.66678 144.92736 1718 ft 125 kts 269°
2026-05-06 13:00 -37.66617 144.91634 1526 ft 128 kts 270°
2026-05-06 13:00 -37.66553 144.90504 1340 ft 130 kts 271°
2026-05-06 13:00 -37.66489 144.89387 1159 ft 130 kts 271°
2026-05-06 13:00 -37.66423 144.88236 986 ft 133 kts 271°
2026-05-06 13:01 -37.66356 144.87072 809 ft 133 kts 271°
2026-05-06 13:01 -37.66289 144.85903 633 ft 134 kts 270°
2026-05-06 13:01 -37.66222 144.84732 450 ft 134 kts 271°
2026-05-06 13:01 -37.66160 144.83673 415 ft 94 kts 274°
2026-05-06 13:02 -37.66134 144.83193 413 ft 33 kts 272°
2026-05-06 13:02 -37.66173 144.82927 405 ft 30 kts 252°
2026-05-06 13:02 -37.66257 144.82723 396 ft 22 kts 226°
2026-05-06 13:02 -37.66400 144.82702 388 ft 24 kts 147°
2026-05-06 13:03 -37.66451 144.82873 386 ft 15 kts 95°
2026-05-06 13:03 -37.66455 144.82958 388 ft 9 kts 93°
2026-05-06 13:03 -37.66458 144.83028 391 ft 7 kts 93°
2026-05-06 13:03 -37.66462 144.83081 388 ft 7 kts 95°
2026-05-06 13:04 -37.66468 144.83167 396 ft 10 kts 95°
2026-05-06 13:04 -37.66474 144.83248 398 ft 10 kts 94°
2026-05-06 13:04 -37.66478 144.83372 403 ft 17 kts 93°
2026-05-06 13:04 -37.66488 144.83528 404 ft 18 kts 95°
2026-05-06 13:05 -37.66500 144.83685 405 ft 18 kts 96°
2026-05-06 13:05 -37.66507 144.83851 404 ft 19 kts 91°
2026-05-06 13:05 -37.66558 144.83935 402 ft 14 kts 165°
2026-05-06 13:05 -37.66673 144.83961 396 ft 22 kts 172°
2026-05-06 13:06 -37.66852 144.83995 390 ft 28 kts 172°
2026-05-06 13:06 -37.67057 144.84032 383 ft 31 kts 172°
2026-05-06 13:06 -37.67232 144.84066 378 ft 24 kts 172°
2026-05-06 13:06 -37.67401 144.84095 374 ft 24 kts 173°
2026-05-06 13:07 -37.67495 144.84152 372 ft 15 kts 119°
2026-05-06 13:07 -37.67491 144.84273 374 ft 13 kts 81°
2026-05-06 13:07 -37.67476 144.84387 377 ft 14 kts 81°
2026-05-06 13:07 -37.67483 144.84512 378 ft 15 kts 125°
2026-05-06 13:08 -37.67583 144.84557 376 ft 17 kts 171°
2026-05-06 13:08 -37.67708 144.84587 371 ft 18 kts 151°
2026-05-06 13:08 -37.67735 144.84720 371 ft 12 kts 82°
2026-05-06 13:08 -37.67715 144.84809 373 ft 9 kts 33°
2026-05-06 13:09 -37.67657 144.84805 375 ft 7 kts 351°
2026-05-06 13:09 -37.67637 144.84801 376 ft 1 kts 352°
2026-05-06 13:09 -37.67631 144.84800 376 ft 1 kts 352°
2026-05-06 13:28 -37.67635 144.84801 376 ft 3 kts 352°
2026-05-06 13:28 -37.67661 144.84805 375 ft 4 kts 353°
2026-05-06 13:28 -37.67688 144.84809 374 ft 4 kts 359°
2026-05-06 13:28 -37.67714 144.84806 373 ft 4 kts 26°
2026-05-06 13:29 -37.67727 144.84788 373 ft 4 kts 82°
2026-05-06 13:29 -37.67731 144.84754 372 ft 4 kts 82°
2026-05-06 13:29 -37.67735 144.84721 372 ft 4 kts 82°
2026-05-06 13:29 -37.67739 144.84687 371 ft 4 kts 82°
2026-05-06 13:30 -37.67742 144.84656 371 ft 4 kts 91°
2026-05-06 13:30 -37.67738 144.84623 371 ft 4 kts 114°
2026-05-06 13:30 -37.67723 144.84596 371 ft 4 kts 142°
2026-05-06 13:30 -37.67700 144.84580 372 ft 4 kts 163°
2026-05-06 13:31 -37.67674 144.84573 373 ft 4 kts 173°
2026-05-06 13:31 -37.67656 144.84570 373 ft 1 kts 171°
2026-05-06 13:31 -37.67713 144.84613 372 ft 16 kts 98°
2026-05-06 13:31 -37.67678 144.84740 374 ft 16 kts 65°
2026-05-06 13:32 -37.67689 144.84809 374 ft 9 kts 167°
2026-05-06 13:32 -37.67727 144.84780 373 ft 14 kts 257°
2026-05-06 13:32 -37.67738 144.84688 371 ft 14 kts 261°
2026-05-06 13:32 -37.67750 144.84601 370 ft 8 kts 234°
2026-05-06 13:33 -37.67805 144.84598 369 ft 16 kts 172°
2026-05-06 13:33 -37.67912 144.84618 364 ft 16 kts 172°
2026-05-06 13:33 -37.68019 144.84638 360 ft 16 kts 172°
2026-05-06 13:33 -37.68126 144.84658 356 ft 16 kts 172°
2026-05-06 13:34 -37.68234 144.84678 353 ft 16 kts 172°
2026-05-06 13:34 -37.68317 144.84694 355 ft 16 kts 167°
2026-05-06 13:34 -37.68391 144.84763 350 ft 6 kts 116°
2026-05-06 13:34 -37.68404 144.84841 354 ft 13 kts 94°
2026-05-06 13:35 -37.68412 144.84976 345 ft 16 kts 94°
2026-05-06 13:35 -37.68420 144.85112 354 ft 16 kts 94°
2026-05-06 13:35 -37.68439 144.85201 354 ft 14 kts 139°
2026-05-06 13:35 -37.68492 144.85272 350 ft 14 kts 128°
2026-05-06 13:36 -37.68529 144.85319 335 ft 7 kts 149°
2026-05-06 13:36 -37.68571 144.85333 335 ft 7 kts 172°
2026-05-06 13:36 -37.68596 144.85331 335 ft 4 kts 218°
2026-05-06 13:36 -37.68596 144.85330 335 ft 0 kts 222°